Tracking 27402 objects as of 2-Jun-2023
HD Live streaming from Space Station
objects crossing your sky now

STARLINK-4500

Track STARLINK-4500 now!
10-day predictions
STARLINK-4500 is classified as:


NORAD ID: 53413
Int'l Code: 2022-097AB
Perigee: 546.2 km
Apogee: 547.7 km
Inclination: 53.2 °
Period: 95.4 minutes
Semi major axis: 6917 km
RCS: Unknown
Launch date: August 10, 2022
Source: United States (US)
Launch site: AIR FORCE EASTERN TEST RANGE (AFETR)
Your satellite tracking list
Your tracking list is empty




NASA's NSSDC Master Catalog

Two Line Element Set (TLE):
1 53413U 22097AB  23153.22005715  .00002469  00000-0  17319-3 0  9997
2 53413  53.2156 334.7847 0001094  98.1671 261.9446 15.08830232 45465
Source of the keplerian elements: AFSPC